Aérodrome :
LOGIN :

S'inscrire | Disclaimer

   EN    FR    IT 

 










Légende :    VFR   VFR Marginal   IFR   IFR Intensif   IFR Très Intensif
Visi : 
Plafond : 
>= 8 km
>= 3000ft
5 à 8 km
1000 à 3000 ft
1500m à 5 km
500 à 1000 ft
800 à 1500m
200 à 500 ft
< 800m
< 200 ft
Symboles :   Orages  Brouillard  Fortes neiges  Fortes précipitations  Vent > 20 kt
SIGMETs :   Divers  Orages  Givrage  Turbulence  Onde Orograph.  Cendres Volcan.







- Altitude de l'aérodrome : 129 ft
- Code IATA : ZCN


ETHC - Celle

DERNIER METAR :
  • 141845Z 19004KT 9999 FEW014 BKN025 02/01 Q0991 BLU

METARs EXPIRÉS :
  • 141820Z 19005KT 9000 SCT010 BKN017 02/01 Q0991 WHT
  • 141720Z 21007KT 8000 -SHRA SCT009 BKN017 02/01 Q0991 WHT
  • 141620Z 23009KT 9999 BKN015 BKN050 03/01 Q0991 WHT FCST CANCEL

TAF AMD TAF ETHC
Valide du 14 à 15h jusqu'au 15 à 00h UTC


141546Z 1415/1424 24010KT 9999 NSW SCT015 BKN030
TEMPO 1415/1419 25015G25KT 4000 RASN BKN007 BKN015 CANCEL 1600
Pas de NOTAMs connus pour ce terrain.



MET'MAP, la Météo Aéronautique d'un coup d'oeil ! - Copyright ORBIFLY Décembre 2007 - Disclaimer

ORBIFLY MET'MAP TEAM :

Programmation & Développement : Alexandra Zaïnal
Conception & Développement : Baudouin d'Aumeries
Co-Programmation & Développement : Marc-Olivier Méhu
Soutien technique & logistique : Manuel Goepfert

Contact : metmap@orbifly.com




SOURCES & CREDITS :

   NOAA